Overview Statistics Trail Chart Weather Telemetry Raw packets
 

This is the latest recevied weather packets stored in our database for station/object R8AHC-13. If no packets are shown the sender has not sent any weather packets the latest 10 day(s).

<< 1 2 3 4 5 6 >>
Time Temp. Humidity Pressure Rain* Wind** Luminosity Snow
1778013421 13.89° C 47% 1013 hPa - 0.89 m/s, 230° - -
1778009822 13.89° C 47% 1013 hPa - 4.02 m/s, 220° - -
1778006222 17.78° C 36% 1013 hPa - 4.02 m/s, 220° - -
1778002621 17.78° C 36% 1014 hPa - 4.02 m/s, 200° - -
1777999022 17.78° C 36% 1014 hPa - 3.13 m/s, 190° - -
1777995422 17.78° C 36% 1014 hPa - 3.13 m/s, 180° - -
1777991822 17.78° C 36% 1013 hPa - 1.79 m/s, 110° - -
1777988222 17.78° C 36% 1013 hPa - 1.79 m/s, 60° - -
1777984622 17.78° C 36% 1012 hPa - 1.79 m/s, 360° - -
1777981022 17.78° C 36% 1012 hPa - 4.92 m/s, 350° - -
1777977422 17.78° C 36% 1012 hPa - 4.92 m/s, 360° - -
1777973821 17.78° C 36% 1011 hPa - 4.92 m/s, 340° - -
1777970222 17.78° C 36% 1011 hPa - 4.92 m/s, 330° - -
1777966622 17.78° C 36% 1011 hPa - 4.92 m/s, 330° - -
1777963022 12.78° C 62% 1011 hPa - 4.02 m/s, 310° - -
1777959422 12.78° C 62% 1011 hPa - 4.02 m/s, 280° - -
1777955822 10° C 93% 1011 hPa - 4.02 m/s, 290° - -
1777952222 10° C 93% 1010 hPa - 1.79 m/s, 250° - -
1777948622 10° C 93% 1010 hPa - 3.13 m/s, 280° - -
1777945022 10° C 93% 1010 hPa - 4.02 m/s, 260° - -
1777941423 10° C 93% 1010 hPa - 1.79 m/s, 180° - -
1777937822 10° C 93% 1009 hPa - 1.79 m/s, 220° - -
1777934221 10° C 93% 1009 hPa - 1.79 m/s, 190° - -
1777930622 10° C 93% 1010 hPa - 1.79 m/s, 330° - -
1777927022 12.78° C 71% 1009 hPa - 3.13 m/s, 300° - -

* Rain since midnight (hover to see other rain measurements)
** Current wind speed in m/s (hover to see current wind gust speed)